TimeWET,TemperatureF,Dew PointF,Humidity,Sea Level PressureIn,VisibilityMPH,Wind Direction,Wind SpeedMPH,Gust SpeedMPH,PrecipitationIn,Events,Conditions,WindDirDegrees,DateUTC
12:00 AM,59,55,82,30.01,5,East,9.2,,,,Scattered Clouds,90,2012-10-29 00:00:00
12:00 AM,59.0,55.4,88,30.01,5.0,East,9.2,-,N/A,,Partly Cloudy,90,2012-10-29 00:00:00
1:00 AM,60.8,55.4,82,30.01,-9999.0,East,9.2,-,N/A,,Unknown,90,2012-10-29 01:00:00
1:30 AM,59.0,55.4,88,29.98,-9999.0,East,9.2,-,N/A,,Unknown,80,2012-10-29 01:30:00
2:00 AM,59.0,55.4,88,29.98,-9999.0,East,9.2,-,N/A,,Unknown,90,2012-10-29 02:00:00
2:30 AM,60.8,55.4,82,29.98,-9999.0,East,10.4,-,N/A,,Unknown,90,2012-10-29 02:30:00
3:00 AM,60,55,77,29.97,,East,8.1,,,,,90,2012-10-29 03:00:00
3:00 AM,59.0,55.4,88,29.95,-9999.0,East,8.1,-,N/A,,Unknown,90,2012-10-29 03:00:00
3:30 AM,59.0,55.4,88,29.95,-9999.0,East,9.2,-,N/A,,Unknown,90,2012-10-29 03:30:00
4:00 AM,59.0,55.4,88,29.95,-9999.0,East,8.1,-,N/A,,Unknown,90,2012-10-29 04:00:00
4:30 AM,59.0,55.4,88,29.95,-9999.0,East,9.2,-,N/A,,Unknown,90,2012-10-29 04:30:00
5:00 AM,59.0,55.4,88,29.95,5.0,East,10.4,-,N/A,,Partly Cloudy,90,2012-10-29 05:00:00
6:00 AM,60,55,78,29.94,5,East,9.2,,,,Scattered Clouds,90,2012-10-29 06:00:00
6:00 AM,59.0,55.4,88,29.92,5.0,East,9.2,-,N/A,,Partly Cloudy,90,2012-10-29 06:00:00
7:00 AM,59.0,55.4,88,29.92,5.0,East,9.2,-,N/A,,Mostly Cloudy,90,2012-10-29 07:00:00
8:00 AM,60.8,55.4,82,29.92,5.0,East,10.4,-,N/A,,Mostly Cloudy,100,2012-10-29 08:00:00
8:30 AM,62.6,55.4,77,29.95,5.0,East,10.4,-,N/A,,Mostly Cloudy,100,2012-10-29 08:30:00
9:00 AM,63,57,74,29.95,5,East,11.5,,,,Partly Cloudy,90,2012-10-29 09:00:00
9:00 AM,62.6,57.2,82,29.95,5.0,East,11.5,-,N/A,,Mostly Cloudy,90,2012-10-29 09:00:00
9:30 AM,64.4,57.2,77,29.92,5.0,East,12.7,-,N/A,,Mostly Cloudy,100,2012-10-29 09:30:00
10:00 AM,66.2,57.2,73,29.92,5.0,East,12.7,-,N/A,,Mostly Cloudy,100,2012-10-29 10:00:00
10:30 AM,66.2,57.2,73,29.92,5.0,ESE,13.8,-,N/A,,Mostly Cloudy,110,2012-10-29 10:30:00
11:00 AM,66.2,57.2,73,29.92,5.0,East,13.8,-,N/A,,Mostly Cloudy,100,2012-10-29 11:00:00
11:30 AM,68.0,57.2,68,29.92,5.0,East,15.0,-,N/A,,Mostly Cloudy,90,2012-10-29 11:30:00
12:00 PM,68,57,58,29.91,5,East,13.8,,,,Mostly Cloudy,100,2012-10-29 12:00:00
12:00 PM,68.0,57.2,68,29.89,5.0,East,13.8,-,N/A,,Mostly Cloudy,100,2012-10-29 12:00:00
12:30 PM,68.0,57.2,68,29.89,5.0,ESE,15.0,-,N/A,,Mostly Cloudy,110,2012-10-29 12:30:00
1:00 PM,68.0,57.2,68,29.89,5.0,East,12.7,-,N/A,,Mostly Cloudy,100,2012-10-29 13:00:00
1:30 PM,68.0,57.2,68,29.86,5.0,East,11.5,-,N/A,,Mostly Cloudy,100,2012-10-29 13:30:00
2:00 PM,68.0,57.2,68,29.86,5.0,East,10.4,-,N/A,,Mostly Cloudy,90,2012-10-29 14:00:00
2:30 PM,68.0,57.2,68,29.86,5.0,East,11.5,-,N/A,,Mostly Cloudy,100,2012-10-29 14:30:00
3:00 PM,67,58,64,29.86,5,East,11.5,,,,Mostly Cloudy,90,2012-10-29 15:00:00
3:00 PM,68.0,57.2,68,29.86,5.0,East,11.5,-,N/A,,Mostly Cloudy,90,2012-10-29 15:00:00
3:30 PM,66.2,57.2,73,29.86,5.0,East,11.5,-,N/A,,Mostly Cloudy,90,2012-10-29 15:30:00
4:00 PM,66.2,57.2,73,29.86,6.2,East,9.2,-,N/A,,Mostly Cloudy,80,2012-10-29 16:00:00
4:30 PM,68.0,57.2,68,29.83,6.2,East,9.2,-,N/A,,Mostly Cloudy,90,2012-10-29 16:30:00
5:00 PM,66.2,57.2,73,29.83,6.2,East,11.5,-,N/A,,Mostly Cloudy,100,2012-10-29 17:00:00
5:30 PM,64.4,57.2,77,29.83,6.2,East,10.4,-,N/A,,Mostly Cloudy,100,2012-10-29 17:30:00
6:00 PM,63,56,72,29.84,6,East,9.2,,,,Partly Cloudy,100,2012-10-29 18:00:00
6:00 PM,62.6,57.2,82,29.83,6.2,East,9.2,-,N/A,,Mostly Cloudy,100,2012-10-29 18:00:00
6:30 PM,62.6,57.2,82,29.83,6.2,East,10.4,-,N/A,,Mostly Cloudy,100,2012-10-29 18:30:00
7:00 PM,62.6,57.2,82,29.83,5.0,East,9.2,-,N/A,,Mostly Cloudy,100,2012-10-29 19:00:00
7:30 PM,62.6,57.2,82,29.83,5.0,ESE,5.8,-,N/A,,Mostly Cloudy,110,2012-10-29 19:30:00
8:00 PM,60.8,57.2,88,29.83,5.0,East,5.8,-,N/A,,Mostly Cloudy,100,2012-10-29 20:00:00
8:30 PM,60.8,57.2,88,29.83,5.0,ESE,6.9,-,N/A,,Mostly Cloudy,110,2012-10-29 20:30:00
9:00 PM,62,57,79,29.84,5,ESE,8.1,,,,Mostly Cloudy,110,2012-10-29 21:00:00
9:00 PM,60.8,57.2,88,29.83,5.0,ESE,8.1,-,N/A,,Scattered Clouds,110,2012-10-29 21:00:00
9:30 PM,62.6,57.2,82,29.83,5.0,ESE,8.1,-,N/A,,Scattered Clouds,110,2012-10-29 21:30:00
10:00 PM,-9999,-9999,N/A,0.00,-9999.0,North,-9999.0,-,N/A,,Scattered Clouds,0,2012-10-29 22:00:00
10:30 PM,60.8,57.2,88,29.83,5.0,East,4.6,-,N/A,,Scattered Clouds,80,2012-10-29 22:30:00
11:00 PM,59.0,55.4,88,29.80,5.0,SE,4.6,-,N/A,,Scattered Clouds,130,2012-10-29 23:00:00
11:30 PM,-9999,-9999,N/A,0.00,-9999.0,North,-9999.0,-,N/A,,Scattered Clouds,0,2012-10-29 23:30:00